N5123G KPHX-KNYL

Flight info

Callsign N5123G
Flight time 0h 44m
Altitude 16000
Route MOBIE4 GBN V66 BZA
Aircraft EPIC/L-SDFGRWY/S

Departure

Time 2026-05-05 00:07
Airport Phoenix Sky Harbor International Airport (KPHX)

Arrival

Time 2026-05-05 00:51
Airport Yuma International Airport / Marine Corps Air Station Yuma (KNYL)
Time Latitude Longitude Altitude Speed Heading
2026-05-04 23:50 33.44341 -112.02566 1117 ft 0 kts 89°
2026-05-04 23:56 33.44343 -112.02556 1117 ft 1 kts 68°
2026-05-04 23:57 33.44334 -112.02535 1117 ft 5 kts 168°
2026-05-04 23:57 33.44329 -112.02535 1117 ft 0 kts 182°
2026-05-04 23:59 33.44320 -112.02535 1117 ft 3 kts 185°
2026-05-04 23:59 33.44302 -112.02535 1117 ft 0 kts 180°
2026-05-04 23:59 33.44298 -112.02535 1117 ft 2 kts 181°
2026-05-04 23:59 33.44230 -112.02538 1116 ft 11 kts 179°
2026-05-05 00:00 33.44197 -112.02449 1117 ft 14 kts 94°
2026-05-05 00:00 33.44195 -112.02408 1117 ft 14 kts 90°
2026-05-05 00:00 33.44196 -112.02187 1119 ft 15 kts 90°
2026-05-05 00:00 33.44196 -112.02047 1120 ft 17 kts 88°
2026-05-05 00:01 33.44194 -112.01894 1120 ft 18 kts 89°
2026-05-05 00:01 33.44195 -112.01740 1121 ft 18 kts 95°
2026-05-05 00:01 33.44194 -112.01590 1123 ft 18 kts 88°
2026-05-05 00:01 33.44197 -112.01434 1124 ft 18 kts 89°
2026-05-05 00:02 33.44199 -112.01280 1126 ft 18 kts 89°
2026-05-05 00:02 33.44196 -112.01119 1126 ft 19 kts 89°
2026-05-05 00:02 33.44197 -112.00954 1126 ft 19 kts 90°
2026-05-05 00:02 33.44197 -112.00791 1129 ft 19 kts 91°
2026-05-05 00:03 33.44196 -112.00626 1129 ft 20 kts 90°
2026-05-05 00:03 33.44195 -112.00455 1130 ft 20 kts 90°
2026-05-05 00:03 33.44195 -112.00290 1132 ft 20 kts 89°
2026-05-05 00:03 33.44194 -112.00120 1132 ft 20 kts 91°
2026-05-05 00:04 33.44194 -111.99946 1133 ft 20 kts 90°
2026-05-05 00:04 33.44194 -111.99786 1135 ft 19 kts 91°
2026-05-05 00:04 33.44194 -111.99622 1137 ft 19 kts 86°
2026-05-05 00:04 33.44197 -111.99462 1138 ft 19 kts 91°
2026-05-05 00:05 33.44196 -111.99298 1138 ft 20 kts 87°
2026-05-05 00:05 33.44190 -111.99128 1139 ft 20 kts 103°
2026-05-05 00:05 33.44118 -111.99097 1137 ft 11 kts 198°
2026-05-05 00:05 33.44083 -111.99153 1137 ft 7 kts 269°
2026-05-05 00:06 33.44080 -111.99322 1137 ft 48 kts 270°
2026-05-05 00:06 33.44094 -112.00011 1146 ft 107 kts 269°
2026-05-05 00:06 33.44102 -112.00980 1393 ft 124 kts 269°
2026-05-05 00:06 33.44124 -112.02097 1711 ft 145 kts 270°
2026-05-05 00:07 33.44201 -112.03278 2243 ft 148 kts 270°
2026-05-05 00:07 33.44275 -112.04559 2606 ft 162 kts 271°
2026-05-05 00:07 33.44277 -112.05854 3310 ft 148 kts 253°
2026-05-05 00:07 33.43763 -112.06783 3943 ft 138 kts 223°
2026-05-05 00:08 33.43129 -112.07644 4544 ft 135 kts 223°
2026-05-05 00:08 33.42475 -112.08466 5044 ft 139 kts 224°
2026-05-05 00:08 33.41866 -112.09283 5651 ft 135 kts 231°
2026-05-05 00:08 33.41293 -112.10184 6166 ft 138 kts 230°
2026-05-05 00:09 33.40692 -112.11065 6726 ft 137 kts 222°
2026-05-05 00:09 33.40086 -112.11938 7261 ft 139 kts 223°
2026-05-05 00:09 33.39185 -112.12289 7694 ft 146 kts 186°
2026-05-05 00:09 33.38240 -112.12405 8334 ft 138 kts 194°
2026-05-05 00:10 33.37293 -112.12566 8859 ft 140 kts 192°
2026-05-05 00:10 33.36337 -112.12717 9437 ft 139 kts 191°
2026-05-05 00:10 33.35418 -112.13001 9939 ft 141 kts 194°
2026-05-05 00:10 33.34487 -112.13341 10445 ft 140 kts 214°
2026-05-05 00:11 33.33643 -112.13822 11069 ft 139 kts 192°
2026-05-05 00:11 33.32668 -112.13901 11548 ft 145 kts 192°
2026-05-05 00:11 33.31769 -112.14348 11936 ft 147 kts 215°
2026-05-05 00:11 33.30897 -112.14867 12674 ft 135 kts 210°
2026-05-05 00:12 33.29930 -112.15420 12761 ft 165 kts 213°
2026-05-05 00:12 33.28896 -112.16031 13246 ft 170 kts 211°
2026-05-05 00:12 33.27842 -112.16593 13879 ft 162 kts 216°
2026-05-05 00:12 33.27191 -112.17483 14620 ft 139 kts 239°
2026-05-05 00:13 33.26671 -112.18413 15176 ft 138 kts 238°
2026-05-05 00:13 33.26007 -112.19278 15607 ft 147 kts 222°
2026-05-05 00:13 33.25167 -112.19960 16182 ft 146 kts 217°
2026-05-05 00:13 33.24255 -112.20583 16561 ft 157 kts 214°
2026-05-05 00:14 33.23307 -112.21170 17138 ft 151 kts 213°
2026-05-05 00:14 33.22420 -112.21697 17548 ft 142 kts 213°
2026-05-05 00:14 33.21458 -112.22269 17352 ft 165 kts 213°
2026-05-05 00:14 33.20482 -112.22836 17833 ft 145 kts 213°
2026-05-05 00:15 33.19405 -112.23441 16930 ft 203 kts 211°
2026-05-05 00:15 33.18078 -112.24221 16539 ft 221 kts 212°
2026-05-05 00:15 33.16654 -112.25056 16217 ft 232 kts 211°
2026-05-05 00:15 33.15205 -112.25908 15992 ft 236 kts 212°
2026-05-05 00:16 33.13711 -112.26788 15852 ft 236 kts 211°
2026-05-05 00:16 33.12259 -112.27645 15855 ft 230 kts 212°
2026-05-05 00:16 33.10804 -112.28490 15795 ft 229 kts 211°
2026-05-05 00:16 33.09345 -112.29340 15386 ft 238 kts 211°
2026-05-05 00:17 33.08218 -112.29964 16412 ft 186 kts 213°
2026-05-05 00:17 33.07455 -112.31072 16704 ft 162 kts 242°
2026-05-05 00:17 33.07030 -112.32143 16724 ft 177 kts 244°
2026-05-05 00:17 33.06500 -112.33672 16029 ft 219 kts 247°
2026-05-05 00:18 33.05937 -112.35408 15908 ft 227 kts 248°
2026-05-05 00:18 33.05385 -112.37129 16229 ft 217 kts 248°
2026-05-05 00:18 33.04839 -112.38854 16067 ft 229 kts 248°
2026-05-05 00:18 33.04253 -112.40665 15704 ft 244 kts 249°
2026-05-05 00:19 33.03642 -112.42566 15562 ft 246 kts 249°
2026-05-05 00:19 33.03025 -112.44457 15551 ft 244 kts 248°
2026-05-05 00:19 33.02434 -112.46298 15809 ft 233 kts 248°
2026-05-05 00:19 33.01850 -112.48125 15750 ft 236 kts 248°
2026-05-05 00:20 33.01274 -112.49917 15824 ft 234 kts 248°
2026-05-05 00:20 33.00690 -112.51735 15765 ft 236 kts 248°
2026-05-05 00:20 33.00087 -112.53601 15620 ft 241 kts 249°
2026-05-05 00:20 32.99490 -112.55460 15540 ft 243 kts 249°
2026-05-05 00:21 32.99069 -112.56792 17846 ft 137 kts 245°
2026-05-05 00:21 32.98855 -112.57469 18105 ft 135 kts 244°
2026-05-05 00:21 32.98405 -112.58791 16714 ft 220 kts 247°
2026-05-05 00:21 32.97831 -112.60584 16309 ft 238 kts 248°
2026-05-05 00:22 32.97238 -112.62436 16161 ft 242 kts 248°
2026-05-05 00:22 32.96633 -112.64308 16090 ft 243 kts 248°
2026-05-05 00:22 32.96022 -112.66202 15965 ft 246 kts 248°
2026-05-05 00:22 32.95493 -112.68127 15867 ft 248 kts 260°
2026-05-05 00:23 32.95253 -112.70141 15836 ft 246 kts 258°
2026-05-05 00:23 32.94987 -112.72170 15764 ft 246 kts 259°
2026-05-05 00:23 32.94729 -112.74129 15972 ft 237 kts 258°
2026-05-05 00:23 32.94466 -112.76067 15907 ft 239 kts 258°
2026-05-05 00:24 32.94205 -112.78019 15886 ft 241 kts 258°
2026-05-05 00:24 32.93944 -112.80048 15664 ft 248 kts 259°
2026-05-05 00:24 32.93861 -112.82077 15759 ft 244 kts 265°
2026-05-05 00:24 32.93624 -112.83987 16122 ft 226 kts 252°
2026-05-05 00:25 32.93244 -112.85860 15763 ft 242 kts 256°
2026-05-05 00:25 32.92934 -112.87793 15823 ft 240 kts 257°
2026-05-05 00:25 32.92638 -112.89786 15686 ft 244 kts 257°
2026-05-05 00:25 32.92359 -112.91764 15683 ft 243 kts 258°
2026-05-05 00:26 32.92095 -112.93687 15947 ft 232 kts 258°
2026-05-05 00:26 32.91827 -112.95610 15720 ft 242 kts 258°
2026-05-05 00:26 32.91566 -112.97501 16362 ft 214 kts 257°
2026-05-05 00:26 32.91317 -112.99286 16102 ft 231 kts 258°
2026-05-05 00:27 32.91061 -113.01195 16006 ft 237 kts 258°
2026-05-05 00:27 32.90801 -113.03127 15981 ft 238 kts 259°
2026-05-05 00:27 32.90536 -113.05072 15979 ft 238 kts 258°
2026-05-05 00:27 32.90271 -113.07014 15973 ft 239 kts 259°
2026-05-05 00:28 32.90006 -113.08961 15974 ft 239 kts 258°
2026-05-05 00:28 32.89737 -113.10917 15976 ft 239 kts 258°
2026-05-05 00:28 32.89469 -113.12872 15973 ft 239 kts 259°
2026-05-05 00:28 32.89203 -113.14799 15977 ft 239 kts 258°
2026-05-05 00:29 32.88934 -113.16755 15974 ft 240 kts 258°
2026-05-05 00:29 32.88665 -113.18715 15973 ft 240 kts 258°
2026-05-05 00:29 32.88398 -113.20660 15972 ft 240 kts 258°
2026-05-05 00:29 32.88124 -113.22627 15970 ft 240 kts 258°
2026-05-05 00:30 32.87854 -113.24581 15980 ft 239 kts 258°
2026-05-05 00:30 32.87582 -113.26550 15988 ft 242 kts 258°
2026-05-05 00:30 32.87307 -113.28524 15989 ft 245 kts 258°
2026-05-05 00:30 32.87032 -113.30515 15992 ft 246 kts 259°
2026-05-05 00:31 32.86750 -113.32544 15991 ft 248 kts 258°
2026-05-05 00:31 32.86467 -113.34562 15989 ft 249 kts 258°
2026-05-05 00:31 32.86188 -113.36578 15990 ft 249 kts 259°
2026-05-05 00:31 32.85905 -113.38617 15990 ft 250 kts 259°
2026-05-05 00:32 32.85617 -113.40672 15988 ft 251 kts 259°
2026-05-05 00:32 32.85333 -113.42704 15986 ft 251 kts 258°
2026-05-05 00:32 32.85048 -113.44746 15986 ft 251 kts 258°
2026-05-05 00:32 32.84763 -113.46785 15985 ft 251 kts 258°
2026-05-05 00:33 32.84472 -113.48843 15983 ft 251 kts 259°
2026-05-05 00:33 32.84186 -113.50887 15982 ft 251 kts 258°
2026-05-05 00:33 32.83898 -113.52927 15979 ft 251 kts 258°
2026-05-05 00:33 32.83609 -113.54984 15976 ft 252 kts 259°
2026-05-05 00:34 32.83320 -113.57026 15975 ft 252 kts 259°
2026-05-05 00:34 32.83031 -113.59077 15977 ft 255 kts 259°
2026-05-05 00:34 32.82732 -113.61178 15984 ft 261 kts 258°
2026-05-05 00:34 32.82431 -113.63320 15983 ft 265 kts 258°
2026-05-05 00:35 32.82123 -113.65480 15981 ft 268 kts 258°
2026-05-05 00:35 32.81814 -113.67670 15984 ft 270 kts 258°
2026-05-05 00:35 32.81501 -113.69879 15982 ft 272 kts 258°
2026-05-05 00:35 32.81185 -113.72089 15981 ft 273 kts 258°
2026-05-05 00:36 32.80867 -113.74332 15981 ft 274 kts 258°
2026-05-05 00:36 32.80549 -113.76552 15973 ft 275 kts 258°
2026-05-05 00:36 32.80227 -113.78803 15974 ft 275 kts 258°
2026-05-05 00:36 32.79912 -113.81016 15976 ft 275 kts 258°
2026-05-05 00:37 32.79589 -113.83258 15976 ft 275 kts 258°
2026-05-05 00:37 32.79269 -113.85493 15973 ft 276 kts 258°
2026-05-05 00:37 32.78944 -113.87736 15968 ft 276 kts 258°
2026-05-05 00:37 32.78621 -113.89982 15969 ft 276 kts 258°
2026-05-05 00:38 32.78299 -113.92225 15972 ft 276 kts 258°
2026-05-05 00:38 32.77980 -113.94479 15970 ft 276 kts 258°
2026-05-05 00:38 32.77685 -113.96722 15945 ft 277 kts 265°
2026-05-05 00:38 32.77601 -113.98986 15961 ft 277 kts 265°
2026-05-05 00:39 32.77551 -114.01257 15966 ft 277 kts 266°
2026-05-05 00:39 32.77516 -114.03557 15637 ft 287 kts 266°
2026-05-05 00:39 32.77485 -114.05932 15021 ft 283 kts 267°
2026-05-05 00:39 32.77464 -114.08230 14399 ft 276 kts 266°
2026-05-05 00:40 32.77439 -114.10476 13788 ft 271 kts 267°
2026-05-05 00:40 32.77418 -114.12678 13182 ft 266 kts 267°
2026-05-05 00:40 32.77396 -114.14838 12588 ft 262 kts 266°
2026-05-05 00:40 32.77374 -114.16958 11990 ft 258 kts 266°
2026-05-05 00:41 32.77348 -114.19081 11379 ft 256 kts 266°
2026-05-05 00:41 32.77327 -114.21175 10765 ft 253 kts 266°
2026-05-05 00:41 32.77302 -114.23241 10140 ft 251 kts 266°
2026-05-05 00:41 32.77280 -114.25281 9528 ft 249 kts 266°
2026-05-05 00:42 32.77257 -114.27347 8904 ft 248 kts 266°
2026-05-05 00:42 32.77231 -114.29369 8308 ft 248 kts 265°
2026-05-05 00:42 32.77388 -114.31381 7668 ft 253 kts 284°
2026-05-05 00:42 32.77869 -114.33364 7094 ft 251 kts 281°
2026-05-05 00:43 32.78341 -114.35365 6464 ft 252 kts 282°
2026-05-05 00:43 32.78823 -114.37376 5739 ft 257 kts 282°
2026-05-05 00:43 32.79304 -114.39414 5024 ft 259 kts 282°
2026-05-05 00:43 32.79791 -114.41457 4390 ft 257 kts 282°
2026-05-05 00:44 32.80268 -114.43466 3837 ft 253 kts 282°
2026-05-05 00:44 32.80738 -114.45453 3282 ft 249 kts 282°
2026-05-05 00:44 32.81193 -114.47395 2993 ft 233 kts 279°
2026-05-05 00:44 32.80919 -114.49111 2969 ft 204 kts 235°
2026-05-05 00:45 32.79940 -114.50203 2961 ft 187 kts 212°
2026-05-05 00:45 32.78810 -114.50831 2959 ft 174 kts 204°
2026-05-05 00:45 32.77671 -114.51299 2806 ft 170 kts 201°
2026-05-05 00:45 32.76582 -114.51681 2644 ft 158 kts 198°
2026-05-05 00:46 32.75567 -114.52030 2444 ft 150 kts 201°
2026-05-05 00:46 32.74634 -114.52359 2228 ft 127 kts 201°
2026-05-05 00:46 32.73866 -114.52624 2064 ft 102 kts 202°
2026-05-05 00:46 32.73158 -114.52873 1975 ft 115 kts 200°
2026-05-05 00:47 32.72374 -114.53145 1822 ft 117 kts 204°
2026-05-05 00:47 32.71766 -114.53689 1675 ft 113 kts 222°
2026-05-05 00:48 32.71636 -114.53831 1644 ft 112 kts 222°
2026-05-05 00:48 32.71075 -114.54459 1493 ft 110 kts 223°
2026-05-05 00:48 32.70526 -114.55086 1348 ft 107 kts 224°
2026-05-05 00:48 32.69993 -114.55699 1202 ft 106 kts 224°
2026-05-05 00:49 32.69384 -114.56198 896 ft 105 kts 215°
2026-05-05 00:49 32.68810 -114.56723 683 ft 113 kts 223°
2026-05-05 00:49 32.68207 -114.57428 598 ft 126 kts 224°
2026-05-05 00:49 32.67622 -114.58098 457 ft 107 kts 224°
2026-05-05 00:50 32.67119 -114.58682 338 ft 99 kts 223°
2026-05-05 00:50 32.66616 -114.59255 230 ft 99 kts 222°
2026-05-05 00:50 32.66149 -114.59785 199 ft 84 kts 225°
2026-05-05 00:50 32.65715 -114.60281 191 ft 69 kts 219°
2026-05-05 00:51 32.65442 -114.60573 188 ft 33 kts 225°
2026-05-05 00:51 32.65286 -114.60755 188 ft 27 kts 220°
2026-05-05 00:51 32.65206 -114.60718 188 ft 17 kts 91°
2026-05-05 00:51 32.65205 -114.60555 188 ft 21 kts 84°
2026-05-05 00:52 32.65210 -114.60359 188 ft 24 kts 90°
2026-05-05 00:52 32.65242 -114.60150 190 ft 26 kts 65°
2026-05-05 00:52 32.65339 -114.59954 192 ft 28 kts 60°
2026-05-05 00:52 32.65434 -114.59747 198 ft 28 kts 64°
2026-05-05 00:53 32.65554 -114.59595 202 ft 26 kts 16°
2026-05-05 00:53 32.65587 -114.59591 202 ft 0 kts 359°